Weather in Dubrovka

Russia / Kemerovo Oblast     55°55′25″N   85°21′14″E
temp.,
°C
wind,
m/s
gust,
m/s
humid.,
%
clouds,
%
prec.,
mm/h
press.,
hPa
HPBL,
m
27 november, sat
sat2701:00−18s4129689 0.1 1035289
04:00−17s41495100 0.0 1034341
07:00−13ssw51492100 0.1 1034655
10:00−12ssw61390100 0.2 1033818
13:00−10ssw61489100 0.4 1032792
16:00−9ssw61492100 0.3 1031877
19:00−8ssw71593100 1.2 1029944
22:00−7ssw71594100 1.3 10261069
28 november, sun
sun2801:00−6sw71594100 3.7 10241107
04:00−6sw71494100 3.0 1024910
07:00−6wsw61394100 4.0 1024789
10:00−6wsw51393100 0.5 1027642
13:00−6wsw51293100 0.8 1028564
16:00−6wsw51194100 0.3 1029704
19:00−6sw51194100 0.6 1031611
22:00−6sw51195100 0.3 1033706
29 november, mon
mon2901:00−6sw4995100 0.6 1034517
04:00−9sw4996100 0.1 1035291
07:00−10ssw31096100 0.2 1035317
10:00−10ssw4109696 0.1 1035288
13:00−9ssw41194100 0.1 1034326
16:00−9ssw41192100 0.0 1032351
19:00−9ssw41290100 0.0 1032327
22:00−9ssw41289100 0.0 1030333
30 november, tue
tue3001:00−9ssw41385100 0.0 1029349
04:00−8ssw4148598 0.0 1028376
07:00−9ssw4148585 0.0 1026360
10:00−9ssw41485100 0.0 1027383
13:00−7ssw5138384 0.0 1026471
16:00−7sw4138375 0.0 1026432
19:00−8sw4128499 0.0 1027343
22:00−7sw41283100 0.0 1027371
1 december, wed
wed101:00−8sw41186100 0.0 1028300
04:00−8sw3990100 0.1 1029276
07:00−9ssw3790100 0.1 1030216
10:00−9s3787100 0.0 1030210
13:00−10s3985100 0.0 1030205
16:00−9s31085100 0.0 1028229
19:00−9s41284100 0.0 1026252
22:00−8ssw41480100 0.0 1025282